Location: Riddle Hill
(39.7867°N, 89.7645°W)
Time: 21:33:40
(UTC+00:00)

Cosmos 1244 Rocket - Pass Details

Date: 29 October 2020
Orbit: 954 x 997 km, 82.9° (Epoch: 30 November)

Event Time Altitude Azimuth Distance (km) Brightness Sun altitude
Rises 23:35:24 0° 355° (N) 3,662 7.4 -7.4°
Reaches altitude 10° 23:37:56 10° 359° (N) 2,717 6.7 -7.9°
Maximum altitude 23:44:08 66° 81° (E) 1,061 4.5 -9.1°
Drops below altitude 10° 23:50:21 10° 163° (SSE) 2,730 6.8 -10.3°
Sets 23:52:53 0° 166° (SSE) 3,680 7.5 -10.7°
